Weather History for Keahole Point, HI

Change the Weather History Date:

Monday, December 17, 2012

  Actual Average Record
Temperature  
Mean Temperature 75 °F -  
Max Temperature 82 °F 80 °F 87 °F (1982)
Min Temperature 68 °F 68 °F 63 °F (1989)
Cooling Degree Days 10    
Growing Degree Days 25 (Base 50)    
Moisture  
Dew Point 61 °F    
Average Humidity 63    
Maximum Humidity 71    
Minimum Humidity 52    
Precipitation  
Precipitation 0.00 in - - ()
Sea Level Pressure  
Sea Level Pressure 30.02 in    
Wind  
Wind Speed 4 mph (SSE)    
Max Wind Speed 9 mph    
Max Gust Speed -    
Visibility 10 miles    
Events      
Averages and records for this station are not official NWS values.
T = Trace of Precipitation, MM = Missing Value Source: NWS Daily Summary

Daily Weather History Graph

Daily Weather History Graph

Search for Another Location

Airport:

Trip Planner

Search our weather history database for the weather conditions in past years. The results will help you decide how hot, cold, wet, or windy it might be!

Date:

Astronomy

Dec. 17, 2012 Rise Set
Actual Time 6:52 AM HST 5:49 PM HST
Civil Twilight 6:28 AM HST 6:12 PM HST
Nautical Twilight 6:00 AM HST 6:40 PM HST
Astronomical Twilight 5:33 AM HST 7:07 PM HST
Moon 10:40 AM HST (12/17) 10:44 PM HST (12/17)
Length of Visible Light 11h 44m
Length of Day
10h 56m
Waxing Crescent, 26% of the Moon is Illuminated
Dec 17
Waxing Crescent
Dec 19
First Quarter
Dec 28
Full
Jan 4
Last Quarter
Jan 11
New

Hourly Weather History & Observations

Time (HST) Temp. Heat Index Dew Point Humidity Pressure Visibility Wind Dir Wind Speed Gust Speed Precip Events Conditions
12:53 AM 71.1 °F - 55.9 °F 59% 30.03 in 10.0 mi Calm Calm - N/A   Clear
1:53 AM 70.0 °F - 55.0 °F 59% 30.02 in 10.0 mi East 5.8 mph - N/A   Clear
2:53 AM 69.1 °F - 55.9 °F 63% 30.01 in 10.0 mi North 3.5 mph - N/A   Clear
3:53 AM 69.1 °F - 55.0 °F 61% 30.01 in 10.0 mi Calm Calm - N/A   Clear
4:53 AM 68.0 °F - 55.9 °F 65% 30.01 in 10.0 mi Calm Calm - N/A   Clear
5:53 AM 70.0 °F - 57.0 °F 63% 30.02 in 10.0 mi Calm Calm - N/A   Clear
6:53 AM 68.0 °F - 57.0 °F 68% 30.04 in 10.0 mi Calm Calm - N/A   Clear
7:53 AM 72.0 °F - 57.0 °F 59% 30.04 in 10.0 mi Calm Calm - N/A   Clear
8:53 AM 77.0 °F - 57.9 °F 52% 30.05 in 10.0 mi South 3.5 mph - N/A   Clear
9:53 AM 79.0 °F - 61.0 °F 54% 30.06 in 10.0 mi SSW 5.8 mph - N/A   Clear
10:53 AM 79.0 °F - 62.1 °F 56% 30.05 in 10.0 mi South 8.1 mph - N/A   Clear
11:53 AM 80.1 °F 81.5 °F 63.0 °F 56% 30.02 in 10.0 mi SW 9.2 mph - N/A   Clear
2:53 PM 82.0 °F 83.8 °F 64.9 °F 56% 29.97 in 10.0 mi SW 9.2 mph - N/A   Clear
3:53 PM 79.0 °F - 66.0 °F 64% 29.98 in 10.0 mi SSW 9.2 mph - N/A   Clear
4:53 PM 78.1 °F - 66.0 °F 66% 29.99 in 10.0 mi South 6.9 mph - N/A   Clear
5:53 PM 77.0 °F - 64.9 °F 66% 30.00 in 10.0 mi Variable 4.6 mph - N/A   Partly Cloudy
6:53 PM 77.0 °F - 64.9 °F 66% 30.02 in 10.0 mi South 6.9 mph - N/A   Clear
7:53 PM 75.0 °F - 64.9 °F 71% 30.04 in 10.0 mi ESE 4.6 mph - N/A   Scattered Clouds
8:53 PM 73.9 °F - 64.0 °F 71% 30.05 in 10.0 mi ESE 8.1 mph - N/A   Clear
9:53 PM 73.9 °F - 63.0 °F 68% 30.05 in 10.0 mi ESE 6.9 mph - N/A   Clear
10:53 PM 73.0 °F - 62.1 °F 68% 30.03 in 10.0 mi SE 5.8 mph - N/A   Clear
11:53 PM 73.0 °F - 62.1 °F 68% 30.02 in 10.0 mi ESE 6.9 mph - N/A   Clear